EZY49EV EGGW-LICJ

Flight info

Callsign EZY49EV
Flight time 2h 39m
Altitude 37000
Route RODNI N27 ICTAM Q63 CPT DCT MID UL612 OGULO DCT OKASI DCT OKEKO DCT MOU DCT MADIV DCT MOKIP DCT TUFTA DCT KOGAS DCT MEDAM DCT NITAM DCT MOGBO DCT BAKRO DCT VALMA DCT BETOT DCT RONAB DCT GIANO
Aircraft A320/M-SDE3FGHIRWY/LB1

Departure

Time 2026-05-07 14:40
Airport London Luton Airport (EGGW)

Arrival

Time 2026-05-07 17:19
Airport Falcone–Borsellino Airport (LICJ)
Time Latitude Longitude Altitude Speed Heading
2026-05-07 14:15 51.88175 -0.37313 517 ft 0 kts 161°
2026-05-07 14:32 51.88191 -0.37321 517 ft 4 kts 161°
2026-05-07 14:33 51.88212 -0.37332 516 ft 4 kts 157°
2026-05-07 14:33 51.88223 -0.37355 516 ft 4 kts 81°
2026-05-07 14:33 51.88217 -0.37392 516 ft 2 kts 71°
2026-05-07 14:33 51.88216 -0.37395 516 ft 0 kts 71°
2026-05-07 14:35 51.88223 -0.37362 516 ft 8 kts 71°
2026-05-07 14:35 51.88227 -0.37271 517 ft 9 kts 112°
2026-05-07 14:35 51.88156 -0.37210 514 ft 16 kts 162°
2026-05-07 14:36 51.88027 -0.37140 508 ft 22 kts 161°
2026-05-07 14:36 51.87882 -0.37061 510 ft 22 kts 162°
2026-05-07 14:36 51.87749 -0.36990 518 ft 18 kts 162°
2026-05-07 14:36 51.87644 -0.36966 524 ft 14 kts 211°
2026-05-07 14:37 51.87605 -0.37135 522 ft 17 kts 252°
2026-05-07 14:37 51.87523 -0.37492 521 ft 18 kts 222°
2026-05-07 14:37 51.87482 -0.37672 523 ft 18 kts 255°
2026-05-07 14:38 51.87442 -0.37894 523 ft 22 kts 254°
2026-05-07 14:38 51.87407 -0.38028 524 ft 7 kts 223°
2026-05-07 14:38 51.87367 -0.38067 523 ft 0 kts 206°
2026-05-07 14:38 51.87367 -0.38068 523 ft 0 kts 206°
2026-05-07 14:39 51.87320 -0.38103 522 ft 16 kts 201°
2026-05-07 14:39 51.87264 -0.37990 524 ft 23 kts 75°
2026-05-07 14:39 51.87360 -0.37441 522 ft 88 kts 75°
2026-05-07 14:39 51.87583 -0.36137 519 ft 150 kts 75°
2026-05-07 14:40 51.87873 -0.34396 1060 ft 159 kts 78°
2026-05-07 14:40 51.88174 -0.32644 1823 ft 164 kts 76°
2026-05-07 14:40 51.88511 -0.30769 2329 ft 183 kts 74°
2026-05-07 14:40 51.88891 -0.28671 2618 ft 205 kts 75°
2026-05-07 14:41 51.89200 -0.26281 2909 ft 229 kts 94°
2026-05-07 14:41 51.88656 -0.23823 3289 ft 249 kts 132°
2026-05-07 14:41 51.87190 -0.22349 3952 ft 257 kts 169°
2026-05-07 14:41 51.85413 -0.22626 4834 ft 259 kts 205°
2026-05-07 14:42 51.84080 -0.24538 5694 ft 262 kts 240°
2026-05-07 14:42 51.83395 -0.27286 6581 ft 265 kts 254°
2026-05-07 14:42 51.82993 -0.30215 7408 ft 269 kts 258°
2026-05-07 14:42 51.82667 -0.33220 8213 ft 274 kts 259°
2026-05-07 14:43 51.82330 -0.36272 9021 ft 278 kts 258°
2026-05-07 14:43 51.81948 -0.39365 9809 ft 283 kts 257°
2026-05-07 14:43 51.81500 -0.42522 10336 ft 297 kts 253°
2026-05-07 14:43 51.80883 -0.45841 10553 ft 320 kts 253°
2026-05-07 14:44 51.80329 -0.49403 11054 ft 332 kts 255°
2026-05-07 14:44 51.79822 -0.53070 11756 ft 336 kts 256°
2026-05-07 14:44 51.79318 -0.56783 12481 ft 340 kts 256°
2026-05-07 14:44 51.78795 -0.60526 13195 ft 344 kts 255°
2026-05-07 14:45 51.78246 -0.64303 13899 ft 347 kts 255°
2026-05-07 14:45 51.77674 -0.68109 14516 ft 350 kts 255°
2026-05-07 14:45 51.77086 -0.71933 15164 ft 352 kts 255°
2026-05-07 14:45 51.76423 -0.75752 15827 ft 354 kts 248°
2026-05-07 14:46 51.75350 -0.79325 16479 ft 355 kts 237°
2026-05-07 14:46 51.73850 -0.82483 17101 ft 357 kts 226°
2026-05-07 14:46 51.72088 -0.85326 17722 ft 359 kts 225°
2026-05-07 14:46 51.70310 -0.88179 18348 ft 362 kts 225°
2026-05-07 14:47 51.68547 -0.91009 18865 ft 364 kts 225°
2026-05-07 14:47 51.66746 -0.93902 19400 ft 367 kts 225°
2026-05-07 14:47 51.64935 -0.96809 19939 ft 369 kts 225°
2026-05-07 14:47 51.63110 -0.99733 20477 ft 371 kts 225°
2026-05-07 14:48 51.61274 -1.02672 20997 ft 373 kts 225°
2026-05-07 14:48 51.59425 -1.05625 21498 ft 376 kts 225°
2026-05-07 14:48 51.57555 -1.08591 21993 ft 378 kts 224°
2026-05-07 14:48 51.55477 -1.11210 22472 ft 382 kts 213°
2026-05-07 14:49 51.53119 -1.13199 22944 ft 386 kts 204°
2026-05-07 14:49 51.50537 -1.14458 23400 ft 391 kts 192°
2026-05-07 14:49 51.47807 -1.14794 23805 ft 397 kts 179°
2026-05-07 14:49 51.45065 -1.14109 24182 ft 403 kts 166°
2026-05-07 14:50 51.42459 -1.12365 24551 ft 410 kts 152°
2026-05-07 14:50 51.40147 -1.09644 24924 ft 415 kts 141°
2026-05-07 14:50 51.37954 -1.06621 25295 ft 417 kts 141°
2026-05-07 14:50 51.35747 -1.03585 25661 ft 419 kts 142°
2026-05-07 14:51 51.33526 -1.00541 26024 ft 421 kts 142°
2026-05-07 14:51 51.31293 -0.97495 26363 ft 424 kts 142°
2026-05-07 14:51 51.29042 -0.94435 26704 ft 426 kts 142°
2026-05-07 14:51 51.26780 -0.91362 27044 ft 428 kts 142°
2026-05-07 14:52 51.24500 -0.88272 27387 ft 431 kts 142°
2026-05-07 14:52 51.22225 -0.85193 27718 ft 433 kts 142°
2026-05-07 14:52 51.19920 -0.82071 28062 ft 435 kts 142°
2026-05-07 14:52 51.17604 -0.78939 28399 ft 437 kts 142°
2026-05-07 14:53 51.15279 -0.75798 28723 ft 439 kts 142°
2026-05-07 14:53 51.12944 -0.72646 29055 ft 441 kts 142°
2026-05-07 14:53 51.10597 -0.69487 29373 ft 443 kts 142°
2026-05-07 14:53 51.08231 -0.66316 29677 ft 445 kts 142°
2026-05-07 14:54 51.05852 -0.63147 29974 ft 447 kts 144°
2026-05-07 14:54 51.03320 -0.60287 30238 ft 447 kts 149°
2026-05-07 14:54 51.00736 -0.57522 30489 ft 449 kts 149°
2026-05-07 14:54 50.98137 -0.54744 30736 ft 451 kts 149°
2026-05-07 14:55 50.95531 -0.51964 30995 ft 452 kts 149°
2026-05-07 14:55 50.92915 -0.49180 31264 ft 453 kts 149°
2026-05-07 14:55 50.90302 -0.46406 31616 ft 452 kts 149°
2026-05-07 14:55 50.87694 -0.43637 31967 ft 451 kts 149°
2026-05-07 14:56 50.85124 -0.40907 32279 ft 450 kts 149°
2026-05-07 14:56 50.82525 -0.38150 32600 ft 450 kts 149°
2026-05-07 14:56 50.79927 -0.35402 32921 ft 449 kts 149°
2026-05-07 14:56 50.77331 -0.32663 33270 ft 448 kts 149°
2026-05-07 14:57 50.74817 -0.30016 33597 ft 447 kts 149°
2026-05-07 14:57 50.72230 -0.27296 33936 ft 447 kts 149°
2026-05-07 14:57 50.69640 -0.24578 34232 ft 446 kts 149°
2026-05-07 14:57 50.67061 -0.21870 34502 ft 445 kts 149°
2026-05-07 14:58 50.64485 -0.19166 34749 ft 445 kts 149°
2026-05-07 14:58 50.61910 -0.16470 35016 ft 444 kts 149°
2026-05-07 14:58 50.59339 -0.13782 35275 ft 444 kts 149°
2026-05-07 14:58 50.56764 -0.11093 35490 ft 443 kts 149°
2026-05-07 14:59 50.54197 -0.08413 35718 ft 443 kts 149°
2026-05-07 14:59 50.51636 -0.05742 35933 ft 443 kts 149°
2026-05-07 14:59 50.49936 -0.03970 36073 ft 443 kts 149°
2026-05-07 14:59 50.47361 -0.01293 36288 ft 443 kts 149°
2026-05-07 15:00 50.44786 0.01379 36471 ft 443 kts 149°
2026-05-07 15:00 50.42214 0.04045 36657 ft 444 kts 149°
2026-05-07 15:00 50.39645 0.06703 36851 ft 443 kts 149°
2026-05-07 15:00 50.37086 0.09348 37032 ft 444 kts 149°
2026-05-07 15:01 50.31958 0.14642 37076 ft 443 kts 149°
2026-05-07 15:01 50.26828 0.19920 37075 ft 442 kts 149°
2026-05-07 15:02 50.21688 0.25192 37076 ft 442 kts 149°
2026-05-07 15:02 50.16557 0.30455 37076 ft 442 kts 149°
2026-05-07 15:03 50.11422 0.35743 37075 ft 442 kts 149°
2026-05-07 15:03 50.06293 0.41015 37078 ft 442 kts 149°
2026-05-07 15:04 50.01154 0.46266 37068 ft 442 kts 149°
2026-05-07 15:04 49.96005 0.51498 37053 ft 442 kts 149°
2026-05-07 15:05 49.90859 0.56730 37062 ft 442 kts 149°
2026-05-07 15:05 49.85718 0.61987 37063 ft 443 kts 146°
2026-05-07 15:06 49.80911 0.67996 37074 ft 444 kts 143°
2026-05-07 15:06 49.76121 0.74033 37053 ft 444 kts 143°
2026-05-07 15:07 49.71324 0.80049 37050 ft 444 kts 143°
2026-05-07 15:07 49.66556 0.86009 37051 ft 444 kts 143°
2026-05-07 15:08 49.61748 0.92006 37044 ft 444 kts 143°
2026-05-07 15:08 49.56940 0.97985 37048 ft 444 kts 143°
2026-05-07 15:09 49.52130 1.03964 37042 ft 444 kts 143°
2026-05-07 15:09 49.47315 1.09930 37042 ft 444 kts 143°
2026-05-07 15:10 49.42497 1.15876 37046 ft 444 kts 144°
2026-05-07 15:10 49.37681 1.21812 37048 ft 444 kts 144°
2026-05-07 15:11 49.32852 1.27749 37047 ft 444 kts 144°
2026-05-07 15:11 49.28025 1.33678 37034 ft 444 kts 144°
2026-05-07 15:12 49.23190 1.39587 37028 ft 445 kts 144°
2026-05-07 15:12 49.18349 1.45484 37035 ft 445 kts 144°
2026-05-07 15:13 49.13502 1.51374 37037 ft 445 kts 144°
2026-05-07 15:13 49.08654 1.57262 37039 ft 445 kts 144°
2026-05-07 15:14 49.03809 1.63134 37028 ft 445 kts 144°
2026-05-07 15:14 48.98951 1.68999 37033 ft 445 kts 144°
2026-05-07 15:15 48.94090 1.74848 37037 ft 445 kts 144°
2026-05-07 15:15 48.89229 1.80697 37031 ft 446 kts 144°
2026-05-07 15:16 48.84362 1.86533 37032 ft 446 kts 144°
2026-05-07 15:16 48.79482 1.92351 37020 ft 446 kts 144°
2026-05-07 15:17 48.74627 1.98133 37019 ft 446 kts 144°
2026-05-07 15:17 48.69739 2.03946 37023 ft 447 kts 144°
2026-05-07 15:18 48.64847 2.09756 37026 ft 447 kts 144°
2026-05-07 15:18 48.59954 2.15538 37024 ft 447 kts 144°
2026-05-07 15:19 48.55230 2.21654 37040 ft 449 kts 137°
2026-05-07 15:19 48.50826 2.28363 37033 ft 450 kts 137°
2026-05-07 15:20 48.46412 2.35056 37033 ft 450 kts 137°
2026-05-07 15:20 48.41992 2.41739 37036 ft 450 kts 137°
2026-05-07 15:21 48.37559 2.48418 37034 ft 451 kts 137°
2026-05-07 15:21 48.33127 2.55083 37039 ft 451 kts 138°
2026-05-07 15:22 48.28566 2.61523 37033 ft 448 kts 147°
2026-05-07 15:22 48.23165 2.66003 37036 ft 443 kts 159°
2026-05-07 15:23 48.17612 2.70045 37023 ft 445 kts 155°
2026-05-07 15:23 48.12186 2.74527 37043 ft 446 kts 154°
2026-05-07 15:24 48.06711 2.78838 37042 ft 443 kts 159°
2026-05-07 15:24 48.01081 2.82464 37040 ft 443 kts 160°
2026-05-07 15:25 47.95405 2.86032 37029 ft 443 kts 160°
2026-05-07 15:25 47.89732 2.89592 37034 ft 443 kts 160°
2026-05-07 15:26 47.84065 2.93187 37034 ft 443 kts 160°
2026-05-07 15:26 47.78389 2.96780 37028 ft 443 kts 160°
2026-05-07 15:27 47.72714 3.00352 37012 ft 443 kts 160°
2026-05-07 15:27 47.67044 3.03908 37017 ft 442 kts 160°
2026-05-07 15:28 47.61371 3.07459 37020 ft 442 kts 160°
2026-05-07 15:28 47.55699 3.11008 37022 ft 442 kts 160°
2026-05-07 15:29 47.50032 3.14547 37011 ft 442 kts 160°
2026-05-07 15:29 47.44360 3.18078 37012 ft 442 kts 161°
2026-05-07 15:30 47.38690 3.21592 37014 ft 442 kts 161°
2026-05-07 15:30 47.32977 3.25120 37003 ft 442 kts 161°
2026-05-07 15:31 47.27338 3.28611 37004 ft 442 kts 161°
2026-05-07 15:31 47.21663 3.32118 37009 ft 442 kts 161°
2026-05-07 15:32 47.15984 3.35611 37009 ft 443 kts 161°
2026-05-07 15:32 47.10297 3.39087 37013 ft 443 kts 161°
2026-05-07 15:33 47.04607 3.42571 37015 ft 443 kts 161°
2026-05-07 15:33 46.98911 3.46046 37020 ft 443 kts 161°
2026-05-07 15:34 46.93209 3.49521 37017 ft 443 kts 161°
2026-05-07 15:34 46.87517 3.52979 37005 ft 443 kts 161°
2026-05-07 15:35 46.81822 3.56434 37010 ft 443 kts 161°
2026-05-07 15:35 46.76180 3.60068 37012 ft 447 kts 153°
2026-05-07 15:36 46.73640 3.62726 37010 ft 452 kts 141°
2026-05-07 15:36 46.71499 3.66100 37008 ft 457 kts 129°
2026-05-07 15:36 46.69841 3.70083 37004 ft 462 kts 117°
2026-05-07 15:36 46.68753 3.74502 37001 ft 466 kts 106°
2026-05-07 15:37 46.67224 3.83685 36995 ft 467 kts 106°
2026-05-07 15:37 46.65664 3.92794 36993 ft 467 kts 106°
2026-05-07 15:38 46.64068 4.01979 36996 ft 468 kts 107°
2026-05-07 15:38 46.62459 4.11164 36989 ft 468 kts 107°
2026-05-07 15:39 46.60854 4.20352 36991 ft 469 kts 107°
2026-05-07 15:39 46.59246 4.29543 36993 ft 469 kts 107°
2026-05-07 15:40 46.57889 4.37243 36997 ft 469 kts 107°
2026-05-07 15:40 46.56267 4.46434 36999 ft 470 kts 107°
2026-05-07 15:41 46.54634 4.55630 37000 ft 470 kts 107°
2026-05-07 15:41 46.52985 4.64813 37002 ft 470 kts 107°
2026-05-07 15:42 46.51328 4.73991 37005 ft 470 kts 107°
2026-05-07 15:42 46.49675 4.83175 37007 ft 470 kts 107°
2026-05-07 15:43 46.48010 4.92363 36998 ft 471 kts 107°
2026-05-07 15:43 46.46334 5.01477 37003 ft 471 kts 107°
2026-05-07 15:44 46.44641 5.10666 36991 ft 471 kts 107°
2026-05-07 15:44 46.42952 5.19852 36999 ft 472 kts 107°
2026-05-07 15:45 46.41255 5.29039 36995 ft 472 kts 107°
2026-05-07 15:45 46.39448 5.38184 36997 ft 470 kts 114°
2026-05-07 15:46 46.36291 5.46342 37000 ft 462 kts 132°
2026-05-07 15:46 46.34229 5.49874 37001 ft 460 kts 134°
2026-05-07 15:47 46.30058 5.56929 37002 ft 461 kts 134°
2026-05-07 15:47 46.25895 5.63986 36986 ft 461 kts 134°
2026-05-07 15:48 46.21723 5.71035 36980 ft 462 kts 135°
2026-05-07 15:48 46.17542 5.78073 36988 ft 462 kts 135°
2026-05-07 15:49 46.13356 5.85105 36997 ft 462 kts 135°
2026-05-07 15:49 46.09160 5.92126 36994 ft 462 kts 135°
2026-05-07 15:50 46.04965 5.99132 36975 ft 462 kts 135°
2026-05-07 15:50 46.00760 6.06137 36947 ft 462 kts 135°
2026-05-07 15:51 45.96552 6.13128 36967 ft 462 kts 135°
2026-05-07 15:51 45.92335 6.20109 36978 ft 462 kts 135°
2026-05-07 15:52 45.88117 6.27074 36971 ft 462 kts 135°
2026-05-07 15:52 45.83902 6.34009 36968 ft 461 kts 135°
2026-05-07 15:53 45.79413 6.40518 36984 ft 455 kts 148°
2026-05-07 15:53 45.74292 6.45778 36979 ft 453 kts 149°
2026-05-07 15:54 45.69157 6.50987 36969 ft 451 kts 149°
2026-05-07 15:54 45.64020 6.56194 36980 ft 453 kts 150°
2026-05-07 15:55 45.58884 6.61399 36988 ft 453 kts 149°
2026-05-07 15:55 45.53741 6.66605 36975 ft 452 kts 150°
2026-05-07 15:56 45.48615 6.71780 36989 ft 452 kts 150°
2026-05-07 15:56 45.43477 6.76946 36996 ft 452 kts 150°
2026-05-07 15:57 45.38341 6.82108 36989 ft 451 kts 150°
2026-05-07 15:57 45.33226 6.87248 36988 ft 449 kts 150°
2026-05-07 15:58 45.28112 6.92344 36989 ft 449 kts 150°
2026-05-07 15:58 45.23398 6.98180 36989 ft 455 kts 141°
2026-05-07 15:59 45.18826 7.04493 36986 ft 456 kts 141°
2026-05-07 15:59 45.14271 7.10765 36978 ft 456 kts 141°
2026-05-07 16:00 45.09903 7.17232 36982 ft 462 kts 131°
2026-05-07 16:00 45.06158 7.24746 36989 ft 464 kts 130°
2026-05-07 16:01 45.02466 7.32175 36997 ft 465 kts 130°
2026-05-07 16:01 44.98739 7.39626 36967 ft 463 kts 133°
2026-05-07 16:02 44.94411 7.46237 36951 ft 457 kts 140°
2026-05-07 16:02 44.89954 7.52646 36972 ft 457 kts 140°
2026-05-07 16:03 44.85502 7.59057 36972 ft 457 kts 140°
2026-05-07 16:03 44.81052 7.65457 36967 ft 458 kts 140°
2026-05-07 16:04 44.76592 7.71857 36970 ft 458 kts 140°
2026-05-07 16:04 44.72119 7.78247 36953 ft 458 kts 141°
2026-05-07 16:05 44.67651 7.84625 36966 ft 458 kts 141°
2026-05-07 16:05 44.63179 7.90983 36975 ft 458 kts 141°
2026-05-07 16:06 44.58693 7.97335 36965 ft 458 kts 141°
2026-05-07 16:06 44.54213 8.03672 36967 ft 458 kts 141°
2026-05-07 16:07 44.49717 8.10013 36972 ft 459 kts 141°
2026-05-07 16:07 44.45218 8.16353 36976 ft 459 kts 141°
2026-05-07 16:08 44.40716 8.22692 36985 ft 459 kts 141°
2026-05-07 16:08 44.36209 8.29020 36990 ft 458 kts 141°
2026-05-07 16:09 44.31704 8.35322 36986 ft 459 kts 141°
2026-05-07 16:09 44.27190 8.41618 36976 ft 458 kts 141°
2026-05-07 16:10 44.22680 8.47911 36986 ft 459 kts 141°
2026-05-07 16:10 44.18163 8.54194 36999 ft 459 kts 141°
2026-05-07 16:11 44.13643 8.60456 37001 ft 458 kts 142°
2026-05-07 16:11 44.09118 8.66710 36980 ft 458 kts 142°
2026-05-07 16:12 44.04621 8.72923 36977 ft 459 kts 142°
2026-05-07 16:12 44.00271 8.78919 36984 ft 459 kts 142°
2026-05-07 16:13 43.95768 8.85104 36994 ft 459 kts 142°
2026-05-07 16:13 43.91289 8.91228 37001 ft 459 kts 142°
2026-05-07 16:14 43.86740 8.97443 36977 ft 459 kts 142°
2026-05-07 16:14 43.82196 9.03654 36988 ft 459 kts 142°
2026-05-07 16:15 43.77660 9.09840 36984 ft 459 kts 143°
2026-05-07 16:15 43.73105 9.16032 36986 ft 460 kts 143°
2026-05-07 16:16 43.68537 9.22216 36991 ft 460 kts 143°
2026-05-07 16:16 43.63981 9.28377 36977 ft 460 kts 143°
2026-05-07 16:17 43.59406 9.34548 36991 ft 460 kts 143°
2026-05-07 16:17 43.54829 9.40714 36989 ft 460 kts 143°
2026-05-07 16:18 43.50241 9.46885 36984 ft 460 kts 143°
2026-05-07 16:18 43.45648 9.53048 36987 ft 461 kts 143°
2026-05-07 16:19 43.41828 9.58149 36966 ft 461 kts 144°
2026-05-07 16:19 43.37225 9.64288 36982 ft 461 kts 143°
2026-05-07 16:20 43.32622 9.70419 36992 ft 461 kts 144°
2026-05-07 16:20 43.28016 9.76549 36998 ft 461 kts 144°
2026-05-07 16:21 43.23399 9.82674 36999 ft 461 kts 144°
2026-05-07 16:21 43.18753 9.88715 36962 ft 456 kts 149°
2026-05-07 16:22 43.13675 9.93800 36970 ft 452 kts 153°
2026-05-07 16:22 43.08559 9.98809 36979 ft 452 kts 153°
2026-05-07 16:23 43.03441 10.03821 36979 ft 453 kts 153°
2026-05-07 16:23 42.98314 10.08818 36953 ft 453 kts 153°
2026-05-07 16:24 42.93177 10.13814 36969 ft 453 kts 153°
2026-05-07 16:24 42.88047 10.18802 36977 ft 453 kts 153°
2026-05-07 16:25 42.82946 10.23751 36968 ft 453 kts 153°
2026-05-07 16:25 42.77815 10.28728 36975 ft 453 kts 153°
2026-05-07 16:26 42.72679 10.33693 36975 ft 452 kts 154°
2026-05-07 16:26 42.67549 10.38636 36990 ft 451 kts 154°
2026-05-07 16:27 42.62428 10.43566 36993 ft 451 kts 154°
2026-05-07 16:27 42.57307 10.48483 36993 ft 450 kts 154°
2026-05-07 16:28 42.52193 10.53385 36968 ft 450 kts 154°
2026-05-07 16:28 42.47073 10.58272 36958 ft 450 kts 154°
2026-05-07 16:29 42.41946 10.63156 36962 ft 451 kts 154°
2026-05-07 16:29 42.36807 10.68050 36967 ft 452 kts 154°
2026-05-07 16:30 42.31672 10.72937 36972 ft 452 kts 154°
2026-05-07 16:30 42.26524 10.77819 36978 ft 452 kts 154°
2026-05-07 16:31 42.21345 10.82720 36980 ft 452 kts 154°
2026-05-07 16:31 42.16197 10.87582 36982 ft 452 kts 155°
2026-05-07 16:32 42.11049 10.92432 36980 ft 452 kts 155°
2026-05-07 16:32 42.05927 10.97261 36960 ft 452 kts 155°
2026-05-07 16:33 42.00782 11.02103 36969 ft 451 kts 155°
2026-05-07 16:33 41.95628 11.06930 36971 ft 451 kts 155°
2026-05-07 16:34 41.90474 11.11740 36980 ft 451 kts 155°
2026-05-07 16:34 41.85315 11.16547 36963 ft 451 kts 156°
2026-05-07 16:35 41.80166 11.21338 36970 ft 450 kts 156°
2026-05-07 16:35 41.75014 11.26126 36977 ft 450 kts 156°
2026-05-07 16:36 41.69869 11.30918 36960 ft 450 kts 156°
2026-05-07 16:36 41.64717 11.35679 36964 ft 449 kts 156°
2026-05-07 16:37 41.59524 11.40243 36951 ft 438 kts 164°
2026-05-07 16:37 41.56773 11.41831 36964 ft 425 kts 173°
2026-05-07 16:37 41.53957 11.42805 36963 ft 412 kts 181°
2026-05-07 16:38 41.48315 11.43832 36969 ft 409 kts 183°
2026-05-07 16:38 41.42680 11.44842 36968 ft 409 kts 183°
2026-05-07 16:39 41.37044 11.45847 36947 ft 408 kts 184°
2026-05-07 16:39 41.31414 11.46848 36959 ft 408 kts 184°
2026-05-07 16:40 41.25792 11.47851 36965 ft 408 kts 184°
2026-05-07 16:40 41.20199 11.48846 36967 ft 407 kts 184°
2026-05-07 16:41 41.14586 11.49843 36953 ft 407 kts 184°
2026-05-07 16:41 41.08980 11.50840 36956 ft 406 kts 184°
2026-05-07 16:42 41.03373 11.51836 36966 ft 406 kts 184°
2026-05-07 16:42 40.97773 11.52823 36938 ft 406 kts 184°
2026-05-07 16:43 40.92183 11.53808 36954 ft 405 kts 184°
2026-05-07 16:43 40.86599 11.54791 36965 ft 404 kts 184°
2026-05-07 16:44 40.81021 11.55769 36973 ft 404 kts 184°
2026-05-07 16:44 40.75448 11.56748 36951 ft 403 kts 185°
2026-05-07 16:45 40.69897 11.57716 36969 ft 402 kts 185°
2026-05-07 16:45 40.64361 11.58685 36969 ft 401 kts 185°
2026-05-07 16:46 40.58834 11.59656 36968 ft 400 kts 185°
2026-05-07 16:46 40.53316 11.60624 36950 ft 399 kts 186°
2026-05-07 16:47 40.47816 11.61582 36960 ft 398 kts 186°
2026-05-07 16:47 40.42323 11.62525 36963 ft 397 kts 186°
2026-05-07 16:48 40.36867 11.64005 36961 ft 419 kts 173°
2026-05-07 16:48 40.31412 11.66775 36918 ft 420 kts 173°
2026-05-07 16:49 40.25975 11.69545 36932 ft 418 kts 174°
2026-05-07 16:49 40.20554 11.72282 36948 ft 417 kts 174°
2026-05-07 16:50 40.15140 11.75003 36947 ft 416 kts 174°
2026-05-07 16:50 40.09697 11.77737 36946 ft 416 kts 174°
2026-05-07 16:51 40.04297 11.80440 36946 ft 415 kts 174°
2026-05-07 16:51 39.98902 11.83138 36944 ft 415 kts 174°
2026-05-07 16:52 39.93514 11.85837 36937 ft 415 kts 174°
2026-05-07 16:52 39.88159 11.88501 36935 ft 414 kts 174°
2026-05-07 16:53 39.82789 11.91318 36897 ft 419 kts 172°
2026-05-07 16:53 39.77433 11.94389 36903 ft 421 kts 171°
2026-05-07 16:54 39.72078 11.97483 36901 ft 421 kts 171°
2026-05-07 16:54 39.66712 12.00517 36904 ft 421 kts 172°
2026-05-07 16:55 39.61342 12.03528 36878 ft 420 kts 172°
2026-05-07 16:55 39.55921 12.06544 36831 ft 422 kts 172°
2026-05-07 16:55 39.53195 12.08051 35853 ft 431 kts 171°
2026-05-07 16:56 39.50410 12.09587 35001 ft 436 kts 171°
2026-05-07 16:56 39.47632 12.11140 34489 ft 432 kts 170°
2026-05-07 16:56 39.42157 12.14231 33372 ft 425 kts 169°
2026-05-07 16:57 39.39492 12.15730 32861 ft 421 kts 169°
2026-05-07 16:57 39.36818 12.17227 32322 ft 416 kts 169°
2026-05-07 16:57 39.34173 12.18699 31803 ft 412 kts 168°
2026-05-07 16:57 39.31544 12.20158 31289 ft 409 kts 168°
2026-05-07 16:58 39.28937 12.21604 30787 ft 407 kts 167°
2026-05-07 16:58 39.26340 12.23040 30285 ft 404 kts 167°
2026-05-07 16:58 39.23759 12.24466 29758 ft 403 kts 167°
2026-05-07 16:58 39.21196 12.25880 29253 ft 399 kts 166°
2026-05-07 16:59 39.18655 12.27283 28767 ft 394 kts 166°
2026-05-07 16:59 39.16990 12.28202 28464 ft 391 kts 166°
2026-05-07 16:59 39.14501 12.29579 27993 ft 387 kts 167°
2026-05-07 16:59 39.12042 12.30943 27568 ft 382 kts 167°
2026-05-07 17:00 39.09611 12.32291 27131 ft 378 kts 166°
2026-05-07 17:00 39.07210 12.33617 26707 ft 374 kts 166°
2026-05-07 17:00 39.04835 12.34922 26295 ft 370 kts 166°
2026-05-07 17:00 39.02478 12.36214 25882 ft 366 kts 166°
2026-05-07 17:01 39.00142 12.37495 25455 ft 364 kts 166°
2026-05-07 17:01 38.97818 12.38768 25009 ft 361 kts 165°
2026-05-07 17:01 38.95513 12.40029 24585 ft 360 kts 165°
2026-05-07 17:01 38.93216 12.41285 24128 ft 358 kts 165°
2026-05-07 17:02 38.90924 12.42539 23673 ft 358 kts 164°
2026-05-07 17:02 38.88708 12.44067 23175 ft 367 kts 152°
2026-05-07 17:02 38.86756 12.46220 22688 ft 376 kts 138°
2026-05-07 17:02 38.85167 12.48974 22185 ft 391 kts 124°
2026-05-07 17:03 38.83891 12.52067 21677 ft 392 kts 122°
2026-05-07 17:03 38.82625 12.55163 21168 ft 392 kts 122°
2026-05-07 17:03 38.81356 12.58252 20662 ft 391 kts 122°
2026-05-07 17:03 38.80086 12.61332 20154 ft 390 kts 122°
2026-05-07 17:04 38.78814 12.64408 19642 ft 390 kts 122°
2026-05-07 17:04 38.77543 12.67479 19139 ft 389 kts 122°
2026-05-07 17:04 38.76277 12.70540 18638 ft 389 kts 122°
2026-05-07 17:04 38.75016 12.73581 18296 ft 384 kts 122°
2026-05-07 17:05 38.73770 12.76582 17829 ft 381 kts 122°
2026-05-07 17:05 38.72532 12.79566 17350 ft 378 kts 122°
2026-05-07 17:05 38.71302 12.82524 16909 ft 375 kts 122°
2026-05-07 17:05 38.70078 12.85457 16454 ft 372 kts 122°
2026-05-07 17:06 38.68864 12.88368 16022 ft 369 kts 121°
2026-05-07 17:06 38.67663 12.91252 15596 ft 366 kts 121°
2026-05-07 17:06 38.66468 12.94121 15168 ft 364 kts 121°
2026-05-07 17:06 38.65281 12.96963 14750 ft 361 kts 121°
2026-05-07 17:07 38.64103 12.99780 14289 ft 356 kts 121°
2026-05-07 17:07 38.62942 13.02550 13528 ft 352 kts 121°
2026-05-07 17:07 38.61790 13.05298 12733 ft 347 kts 121°
2026-05-07 17:07 38.60688 13.07933 12336 ft 334 kts 121°
2026-05-07 17:08 38.59605 13.10521 11928 ft 327 kts 121°
2026-05-07 17:08 38.58539 13.13059 11504 ft 323 kts 121°
2026-05-07 17:08 38.57469 13.15597 11104 ft 314 kts 121°
2026-05-07 17:08 38.56449 13.18022 10597 ft 306 kts 121°
2026-05-07 17:09 38.55383 13.20298 10278 ft 300 kts 130°
2026-05-07 17:09 38.53956 13.22197 9909 ft 294 kts 144°
2026-05-07 17:09 38.52268 13.23560 9722 ft 277 kts 158°
2026-05-07 17:09 38.50542 13.24488 9617 ft 264 kts 160°
2026-05-07 17:10 38.48878 13.25378 9493 ft 254 kts 161°
2026-05-07 17:10 38.47217 13.25823 9372 ft 236 kts 185°
2026-05-07 17:10 38.45662 13.25321 9267 ft 231 kts 209°
2026-05-07 17:10 38.44445 13.24016 8893 ft 228 kts 235°
2026-05-07 17:11 38.43745 13.22203 8567 ft 229 kts 247°
2026-05-07 17:11 38.43096 13.20348 8213 ft 229 kts 236°
2026-05-07 17:11 38.41987 13.18955 7845 ft 224 kts 210°
2026-05-07 17:11 38.40527 13.18379 7487 ft 221 kts 183°
2026-05-07 17:12 38.38983 13.18734 7133 ft 234 kts 156°
2026-05-07 17:12 38.37555 13.19766 6749 ft 237 kts 151°
2026-05-07 17:12 38.36163 13.20821 6504 ft 223 kts 150°
2026-05-07 17:12 38.34865 13.21806 6080 ft 214 kts 150°
2026-05-07 17:13 38.33612 13.22755 5676 ft 205 kts 150°
2026-05-07 17:13 38.32414 13.23660 5340 ft 196 kts 150°
2026-05-07 17:13 38.31270 13.24522 5084 ft 185 kts 150°
2026-05-07 17:13 38.30188 13.25334 4845 ft 176 kts 151°
2026-05-07 17:14 38.29148 13.26110 4586 ft 171 kts 150°
2026-05-07 17:14 38.28133 13.26870 4316 ft 168 kts 150°
2026-05-07 17:14 38.27133 13.27619 4063 ft 166 kts 151°
2026-05-07 17:14 38.26133 13.28315 3793 ft 162 kts 163°
2026-05-07 17:15 38.25022 13.28415 3533 ft 158 kts 194°
2026-05-07 17:15 38.24078 13.27812 3283 ft 153 kts 222°
2026-05-07 17:15 38.23477 13.26693 2990 ft 152 kts 247°
2026-05-07 17:15 38.23073 13.25461 2701 ft 150 kts 246°
2026-05-07 17:16 38.22667 13.24250 2428 ft 148 kts 246°
2026-05-07 17:16 38.22265 13.23053 2138 ft 146 kts 246°
2026-05-07 17:16 38.21872 13.21885 1870 ft 145 kts 246°
2026-05-07 17:16 38.21476 13.20707 1612 ft 145 kts 246°
2026-05-07 17:17 38.21081 13.19525 1345 ft 145 kts 247°
2026-05-07 17:17 38.20688 13.18343 1109 ft 147 kts 247°
2026-05-07 17:17 38.20255 13.17058 1017 ft 175 kts 247°
2026-05-07 17:17 38.19778 13.15638 815 ft 169 kts 247°
2026-05-07 17:18 38.19318 13.14280 519 ft 164 kts 247°
2026-05-07 17:18 38.18887 13.12995 277 ft 153 kts 247°
2026-05-07 17:18 38.18486 13.11797 97 ft 140 kts 246°
2026-05-07 17:18 38.18148 13.10792 69 ft 101 kts 247°
2026-05-07 17:19 38.17938 13.10165 65 ft 60 kts 246°
2026-05-07 17:19 38.17796 13.09749 66 ft 34 kts 246°
2026-05-07 17:19 38.17711 13.09495 66 ft 29 kts 248°
2026-05-07 17:19 38.17642 13.09284 67 ft 21 kts 247°
2026-05-07 17:20 38.17621 13.09164 70 ft 10 kts 311°
2026-05-07 17:20 38.17692 13.09165 71 ft 16 kts 27°
2026-05-07 17:20 38.17797 13.09230 69 ft 16 kts 26°
2026-05-07 17:20 38.17869 13.09325 66 ft 16 kts 68°
2026-05-07 17:21 38.17911 13.09467 64 ft 17 kts 65°
2026-05-07 17:21 38.17951 13.09588 59 ft 12 kts 68°
2026-05-07 17:21 38.17983 13.09684 62 ft 11 kts 66°
2026-05-07 17:21 38.18010 13.09760 59 ft 5 kts 66°
2026-05-07 17:22 38.18017 13.09783 61 ft 4 kts 66°
2026-05-07 17:22 38.18050 13.09879 60 ft 15 kts 66°
2026-05-07 17:22 38.18089 13.09997 63 ft 14 kts 67°
2026-05-07 17:22 38.18125 13.10103 62 ft 13 kts 65°
2026-05-07 17:23 38.18192 13.10151 59 ft 11 kts 355°
2026-05-07 17:23 38.18240 13.10210 63 ft 11 kts 67°
2026-05-07 17:23 38.18275 13.10304 64 ft 11 kts 56°
2026-05-07 17:23 38.18305 13.10395 60 ft 13 kts 68°
2026-05-07 17:24 38.18372 13.10492 63 ft 16 kts 18°
2026-05-07 17:24 38.18454 13.10567 61 ft 14 kts 63°
2026-05-07 17:24 38.18488 13.10636 60 ft 7 kts 28°
2026-05-07 17:24 38.18529 13.10619 60 ft 6 kts 334°
2026-05-07 17:25 38.18550 13.10607 63 ft 1 kts 336°
2026-05-07 17:25 38.18551 13.10607 63 ft 0 kts 336°